Location: Omaha
(41.2590°N, 95.9380°W)
Time: 01:00:43
(UTC-05:00)

Envisat - Pass Details

Date: 13 October 2017
Orbit: 764 x 766 km, 98.2° (Epoch: 16 October)

Event Time Altitude Azimuth Distance (km) Brightness Sun altitude
Exits shadow 19:56:59 19° 69° (ENE) 1,776 4.3 -14.2°
Maximum altitude 19:57:20 19° 63° (ENE) 1,770 4.4 -14.3°
Drops below altitude 10° 20:00:49 10° 20° (NNE) 2,309 5.3 -14.9°
Sets 20:03:44 0° 3° (N) 3,240 6.3 -15.5°
